Powrót do katalogu

ATLAS 5 CENTAUR DEB

AktywnyHEO
NORAD 49341·DEBRIS·🇺🇸 United States

Wystrzelony Oct 17, 2018 z Cape Canaveral Space Force Station

Loading…

Następne Przeloty (najbliższe 24 godziny)

TLE

ŚwieżeSource: Space-Track

Epoka: Sep 9, 2026, 03:22 UTC

1 49341U 18079ES  26252.14093762 -.00000165  00000-0  00000-0 0  9998
2 49341  13.7824  40.9834 4646311 292.6124  25.4561  1.75089363 32175

Śledź ATLAS 5 CENTAUR DEB w czasie rzeczywistym z AllMySat

Download on the App Store